Location: Presov
(49.0000°N, 21.2500°E)
Time: 03:45:13
(UTC+02:00)

deb Explorer IX - All Passes

Search period start: 21 April 2021 00:00
Search period end: 01 May 2021 00:00
Orbit: 541 x 1099 km, 38.8° (Epoch: 20 April)

Date Brightness Start Highest point End Pass type
(mag) Time Alt. Az. Time Alt. Az. Time Alt. Az.
21 Apr - 07:36:43 10° SSW 07:39:36 17° SSE 07:42:40 10° ESE daylight
21 Apr - 09:21:44 10° SW 09:25:27 25° S 09:29:38 10° SE daylight
21 Apr - 11:08:00 10° WSW 11:11:29 19° SSW 11:15:19 10° SSE daylight
22 Apr - 07:13:12 10° SSW 07:15:56 17° SSE 07:18:50 10° ESE daylight
22 Apr - 08:58:11 10° SW 09:01:46 24° S 09:05:45 10° SE daylight
22 Apr - 10:44:31 10° WSW 10:47:46 18° SSW 10:51:22 10° SSE daylight
23 Apr - 06:49:39 10° SSW 06:52:17 16° SSE 06:55:01 10° ESE daylight
23 Apr - 08:34:40 10° SW 08:38:07 23° S 08:41:54 10° SE daylight
23 Apr - 10:21:01 10° WSW 10:24:05 17° SSW 10:27:24 10° SSE daylight
24 Apr - 06:26:07 10° SSW 06:28:38 16° SSE 06:31:15 10° SE daylight
24 Apr - 08:11:07 10° SW 08:14:27 22° S 08:18:04 10° SE daylight
24 Apr - 09:57:31 10° SW 10:00:23 16° SSW 10:03:28 10° SSE daylight
25 Apr - 06:02:32 10° SSW 06:04:58 15° SSE 06:07:30 10° SE daylight
25 Apr - 07:47:35 10° SW 07:50:47 21° S 07:54:15 10° SE daylight
25 Apr - 09:34:02 10° SW 09:36:42 16° SSW 09:39:33 10° SSE daylight
26 Apr - 05:38:55 10° SSW 05:41:20 15° SSE 05:43:47 10° SE daylight
26 Apr - 07:24:01 10° SW 07:27:09 21° S 07:30:28 10° SE daylight
26 Apr - 09:10:33 10° SW 09:13:02 15° SSW 09:15:40 10° SSE daylight
27 Apr - 05:15:18 10° SSW 05:17:42 15° SSE 05:20:06 10° SE daylight
27 Apr - 07:00:27 10° SW 07:03:30 20° S 07:06:42 10° SE daylight
27 Apr - 08:47:04 10° SW 08:49:22 14° SSW 08:51:47 10° SSE daylight
28 Apr - 04:51:39 10° SSW 04:54:03 15° SSE 04:56:27 10° SE daylight
28 Apr - 06:36:51 10° SW 06:39:51 20° S 06:42:58 10° SE daylight
28 Apr - 08:23:34 10° SW 08:25:42 14° SSW 08:27:55 10° SSE daylight
29 Apr - 04:27:57 10° SSW 04:30:25 15° SSE 04:32:50 10° SE visible
29 Apr - 06:13:14 10° SW 06:16:14 20° S 06:19:16 10° SE daylight
29 Apr - 08:00:03 10° SW 08:02:02 13° SSW 08:04:05 10° S daylight
30 Apr - 04:04:13 10° SSW 04:06:46 16° SSE 04:09:14 10° SE visible
30 Apr - 05:49:36 10° SW 05:52:35 20° S 05:55:36 10° SE daylight
30 Apr - 07:36:32 10° SW 07:38:23 13° SSW 07:40:18 10° S daylight
